| time (UTC) | temp F | wind direction | speed MPH | gust MPH | rain 1hr in | rain 24hr in | rain mn in | humidity % | barometer mb |
| 20260904194612 | 74 | 108 | 3.0 | 10.0 | 0.00 | 0.00 | 0.00 | 49 | 1010.1 |
| 20260904193117 | 73 | 82 | 5.0 | 10.0 | 0.00 | 0.00 | 0.00 | 52 | 1010.2 |
| 20260904191606 | 73 | 108 | 4.0 | 8.0 | 0.00 | 0.00 | 0.00 | 51 | 1010.1 |
| 20260904190106 | 73 | 120 | 3.0 | 7.0 | 0.00 | 0.00 | 0.00 | 48 | 1010.2 |
| 20260904184621 | 74 | 145 | 4.0 | 10.0 | 0.00 | 0.00 | 0.00 | 48 | 1010.3 |
| 20260904183109 | 74 | 171 | 3.0 | 9.0 | 0.00 | 0.00 | 0.00 | 47 | 1010.2 |
| 20260904181612 | 74 | 90 | 5.0 | 8.0 | 0.00 | 0.00 | 0.00 | 47 | 1010.1 |
| 20260904180120 | 74 | 184 | 5.0 | 13.0 | 0.00 | 0.00 | 0.00 | 46 | 1010.1 |
| 20260904174620 | 73 | 181 | 4.0 | 8.0 | 0.00 | 0.00 | 0.00 | 48 | 1010.0 |
| 20260904173110 | 71 | 185 | 5.0 | 8.0 | 0.00 | 0.00 | 0.00 | 49 | 1010.1 |
| 20260904171607 | 69 | 197 | 1.0 | 7.0 | 0.00 | 0.00 | 0.00 | 53 | 1010.0 |
| 20260904170107 | 67 | 131 | 4.0 | 8.0 | 0.00 | 0.00 | 0.00 | 55 | 1009.9 |
| 20260904164621 | 66 | 215 | 6.0 | 9.0 | 0.00 | 0.00 | 0.00 | 59 | 1010.3 |
| 20260904163111 | 65 | 203 | 6.0 | 9.0 | 0.00 | 0.00 | 0.00 | 55 | 1010.4 |
| 20260904161606 | 65 | 207 | 6.0 | 9.0 | 0.00 | 0.00 | 0.00 | 56 | 1010.2 |
| 20260904160107 | 64 | 187 | 6.0 | 12.0 | 0.00 | 0.00 | 0.00 | 54 | 1010.2 |
| 20260904154608 | 61 | 194 | 6.0 | 10.0 | 0.00 | 0.00 | 0.00 | 62 | 1010.2 |
| 20260904153124 | 60 | 198 | 5.0 | 10.0 | 0.00 | 0.00 | 0.00 | 62 | 1010.2 |
| 20260904151606 | 59 | 197 | 7.0 | 10.0 | 0.00 | 0.00 | 0.00 | 64 | 1010.1 |
| 20260904150107 | 57 | 193 | 7.0 | 11.0 | 0.00 | 0.00 | 0.00 | 67 | 1010.2 |
| 20260904144611 | 56 | 204 | 6.0 | 11.0 | 0.00 | 0.00 | 0.00 | 70 | 1010.1 |
| 20260904143109 | 54 | 193 | 6.0 | 10.0 | 0.00 | 0.00 | 0.00 | 74 | 1010.0 |
| 20260904141607 | 53 | 209 | 6.0 | 9.0 | 0.00 | 0.00 | 0.00 | 76 | 1009.9 |
| 20260904140120 | 52 | 199 | 5.0 | 10.0 | 0.00 | 0.00 | 0.00 | 77 | 1009.7 |
| 20260904134605 | 51 | 197 | 6.0 | 9.0 | 0.00 | 0.00 | 0.00 | 79 | 1009.7 |
| 20260904133114 | 50 | 197 | 6.0 | 8.0 | 0.00 | 0.00 | 0.00 | 80 | 1009.6 |
| 20260904131615 | 50 | 198 | 5.0 | 8.0 | 0.00 | 0.00 | 0.00 | 80 | 1009.3 |
| 20260904130112 | 49 | 201 | 5.0 | 10.0 | 0.00 | 0.00 | 0.00 | 81 | 1009.0 |
| 20260904124612 | 49 | 193 | 6.0 | 9.0 | 0.00 | 0.00 | 0.00 | 81 | 1008.9 |
| 20260904123117 | 49 | 211 | 6.0 | 9.0 | 0.00 | 0.00 | 0.00 | 81 | 1008.9 |
| 20260904121609 | 49 | 210 | 6.0 | 8.0 | 0.00 | 0.00 | 0.00 | 81 | 1008.8 |
| 20260904120108 | 49 | 202 | 5.0 | 8.0 | 0.00 | 0.00 | 0.00 | 82 | 1008.6 |
| 20260904114606 | 48 | 201 | 6.0 | 10.0 | 0.00 | 0.00 | 0.00 | 83 | 1008.6 |
| 20260904113115 | 48 | 208 | 6.0 | 10.0 | 0.00 | 0.00 | 0.00 | 84 | 1008.3 |
| 20260904111624 | 48 | 202 | 6.0 | 9.0 | 0.00 | 0.00 | 0.00 | 84 | 1008.4 |
| 20260904110110 | 48 | 190 | 6.0 | 10.0 | 0.00 | 0.00 | 0.00 | 84 | 1008.5 |
| 20260904104609 | 48 | 187 | 6.0 | 8.0 | 0.00 | 0.00 | 0.00 | 84 | 1008.2 |
| 20260904103103 | 48 | 188 | 6.0 | 9.0 | 0.00 | 0.00 | 0.00 | 84 | 1008.1 |
| 20260904101616 | 48 | 204 | 7.0 | 10.0 | 0.00 | 0.00 | 0.00 | 85 | 1008.0 |
| 20260904100107 | 48 | 201 | 6.0 | 10.0 | 0.00 | 0.00 | 0.00 | 84 | 1007.8 |
| 20260904094607 | 48 | 199 | 5.0 | 8.0 | 0.00 | 0.00 | 0.00 | 84 | 1007.7 |
| 20260904093118 | 49 | 187 | 6.0 | 8.0 | 0.00 | 0.00 | 0.00 | 83 | 1007.6 |
| 20260904091609 | 49 | 190 | 5.0 | 7.0 | 0.00 | 0.00 | 0.00 | 83 | 1007.4 |
| 20260904090114 | 50 | 193 | 6.0 | 8.0 | 0.00 | 0.00 | 0.00 | 83 | 1007.5 |
| 20260904084623 | 50 | 194 | 6.0 | 10.0 | 0.00 | 0.00 | 0.00 | 83 | 1007.5 |
| 20260904083104 | 51 | 198 | 6.0 | 8.0 | 0.00 | 0.00 | 0.00 | 83 | 1007.3 |
| 20260904081606 | 51 | 204 | 6.0 | 9.0 | 0.00 | 0.00 | 0.00 | 83 | 1007.2 |
| 20260904080105 | 52 | 197 | 5.0 | 7.0 | 0.00 | 0.00 | 0.00 | 83 | 1007.1 |
| 20260904074607 | 52 | 196 | 5.0 | 8.0 | 0.00 | 0.00 | 0.00 | 83 | 1007.0 |
| 20260904073107 | 53 | 202 | 5.0 | 9.0 | 0.00 | 0.00 | 0.00 | 84 | 1006.9 |
| 20260904071607 | 52 | 217 | 6.0 | 8.0 | 0.00 | 0.00 | 0.00 | 86 | 1007.0 |
| 20260904070109 | 52 | 189 | 5.0 | 8.0 | 0.00 | 0.00 | 0.00 | 87 | 1006.7 |
| 20260904064607 | 52 | 189 | 6.0 | 8.0 | 0.00 | 0.01 | 0.00 | 88 | 1006.6 |
| 20260904063106 | 52 | 190 | 6.0 | 8.0 | 0.00 | 0.01 | 0.00 | 88 | 1006.5 |
| 20260904061606 | 52 | 200 | 5.0 | 7.0 | 0.00 | 0.01 | 0.00 | 88 | 1006.4 |
| 20260904060107 | 52 | 179 | 4.0 | 7.0 | 0.00 | 0.01 | 0.00 | 87 | 1006.2 |
| 20260904054608 | 53 | 158 | 4.0 | 6.0 | 0.00 | 0.01 | 0.01 | 87 | 1006.1 |
| 20260904053108 | 53 | 186 | 3.0 | 5.0 | 0.00 | 0.01 | 0.01 | 86 | 1006.2 |
| 20260904051607 | 54 | 186 | 3.0 | 4.0 | 0.00 | 0.01 | 0.01 | 86 | 1006.1 |
| 20260904050107 | 55 | 186 | 3.0 | 5.0 | 0.00 | 0.01 | 0.01 | 86 | 1006.1 |
| 20260904044612 | 55 | 186 | 4.0 | 6.0 | 0.00 | 0.19 | 0.01 | 85 | 1006.1 |
| 20260904043105 | 55 | 186 | 3.0 | 5.0 | 0.00 | 0.19 | 0.01 | 85 | 1005.9 |
| 20260904041608 | 56 | 186 | 4.0 | 5.0 | 0.00 | 0.19 | 0.01 | 84 | 1005.8 |
| 20260904040110 | 56 | 183 | 4.0 | 6.0 | 0.00 | 0.19 | 0.01 | 82 | 1005.6 |
| 20260904034605 | 57 | 182 | 3.0 | 5.0 | 0.00 | 0.31 | 0.01 | 81 | 1005.6 |
| 20260904033112 | 57 | 183 | 3.0 | 6.0 | 0.00 | 0.31 | 0.01 | 80 | 1005.6 |
| 20260904031606 | 59 | 189 | 4.0 | 5.0 | 0.00 | 0.31 | 0.01 | 77 | 1005.6 |
| 20260904030110 | 60 | 189 | 3.0 | 5.0 | 0.00 | 0.31 | 0.01 | 75 | 1005.5 |
| 20260904024616 | 62 | 189 | 3.0 | 6.0 | 0.00 | 0.43 | 0.01 | 73 | 1005.4 |
| 20260904023110 | 63 | 208 | 4.0 | 8.0 | 0.00 | 0.43 | 0.01 | 70 | 1005.3 |
| 20260904021608 | 65 | 237 | 4.0 | 7.0 | 0.00 | 0.43 | 0.01 | 67 | 1005.0 |
| 20260904020112 | 67 | 209 | 4.0 | 6.0 | 0.00 | 0.43 | 0.01 | 64 | 1004.7 |
| 20260904014612 | 68 | 235 | 4.0 | 11.0 | 0.00 | 0.43 | 0.01 | 61 | 1004.5 |
| 20260904013116 | 70 | 251 | 9.0 | 12.0 | 0.00 | 0.43 | 0.01 | 58 | 1004.3 |
| 20260904011615 | 72 | 241 | 8.0 | 15.0 | 0.00 | 0.43 | 0.01 | 54 | 1004.2 |
| 20260904010113 | 73 | 235 | 8.0 | 15.0 | 0.00 | 0.43 | 0.01 | 50 | 1003.8 |
| 20260904004609 | 75 | 218 | 9.0 | 16.0 | 0.00 | 0.43 | 0.01 | 45 | 1003.6 |
| 20260904003107 | 75 | 218 | 11.0 | 17.0 | 0.00 | 0.43 | 0.01 | 46 | 1003.5 |
| 20260904001605 | 73 | 216 | 8.0 | 16.0 | 0.00 | 0.43 | 0.01 | 51 | 1003.3 |
| 20260904000108 | 74 | 195 | 8.0 | 16.0 | 0.00 | 0.43 | 0.01 | 49 | 1003.1 |
| 20260903234607 | 75 | 175 | 10.0 | 20.0 | 0.00 | 0.43 | 0.01 | 48 | 1003.1 |
| 20260903233107 | 75 | 204 | 8.0 | 19.0 | 0.00 | 0.43 | 0.01 | 48 | 1003.0 |
| 20260903231606 | 76 | 235 | 11.0 | 19.0 | 0.00 | 0.43 | 0.01 | 47 | 1003.0 |
| 20260903230105 | 77 | 230 | 12.0 | 23.0 | 0.00 | 0.43 | 0.01 | 47 | 1003.1 |
| 20260903224610 | 77 | 222 | 11.0 | 19.0 | 0.00 | 0.43 | 0.01 | 47 | 1003.1 |
| 20260903223106 | 76 | 228 | 12.0 | 20.0 | 0.00 | 0.43 | 0.01 | 49 | 1002.8 |
| 20260903221605 | 76 | 247 | 12.0 | 25.0 | 0.00 | 0.43 | 0.01 | 48 | 1002.8 |
| 20260903220124 | 75 | 217 | 12.0 | 17.0 | 0.00 | 0.43 | 0.01 | 49 | 1002.7 |
| 20260903214608 | 74 | 227 | 16.0 | 26.0 | 0.00 | 0.43 | 0.01 | 49 | 1002.6 |
| 20260903213106 | 75 | 194 | 12.0 | 23.0 | 0.00 | 0.43 | 0.01 | 49 | 1002.6 |
| 20260903211607 | 73 | 219 | 8.0 | 22.0 | 0.00 | 0.43 | 0.01 | 50 | 1002.4 |
| 20260903210110 | 73 | 214 | 11.0 | 24.0 | 0.00 | 0.43 | 0.01 | 50 | 1002.5 |
| 20260903204606 | 74 | 226 | 12.0 | 22.0 | 0.00 | 0.43 | 0.01 | 51 | 1002.4 |
| 20260903203133 | 75 | 235 | 14.0 | 21.0 | 0.00 | 0.43 | 0.01 | 49 | 1002.7 |
| 20260903201605 | 75 | 223 | 13.0 | 26.0 | 0.00 | 0.43 | 0.01 | 50 | 1002.4 |
| 20260903200105 | 74 | 233 | 15.0 | 24.0 | 0.00 | 0.43 | 0.01 | 54 | 1002.4 |